Wind_Speed
2 3 7 11 9 7 4 5 6 9 16 1 10 7 8 10 4 4 5 20 31 37 43 40 42 40 39 41 43 42 42 42 42 41 38 36 35 33 32 32 29 24 26 24
5 5 11 3 6 7 7 4 10 9 12 6 8 9 7 6 4 3 6 12 24 32 30 25 34 39 47 48 45 45 44 45 45 45 41 38 34 35 34 32 29 23 26 28
6 10 4 3 7 4 4 6 6 10 3 1 2 9 8 11 8 23 11 11 10 9 25 29 30 40 46 50 54 53 48 47 47 46 44 42 37 36 36 36 33 32 28 27
5 4 2 6 6 6 1 7 7 6 3 4 3 3 6 9 9 17 20 21 16 14 6 9 19 41 47 51 54 57 55 49 49 48 49 47 45 43 41 39 37 34 31 29
7 3 7 6 5 4 7 1 3 3 4 3 4 5 7 6 9 7 7 8 8 6 7 4 3 7 28 39 47 53 55 54 53 52 51 50 48 43 39 40 40 38 35 33
7 3 3 3 2 4 3 5 7 5 3 4 4 4 5 3 3 7 5 9 4 6 5 4 8 13 21 32 41 46 49 53 55 55 53 52 52 47 44 42 43 42 39 38
6 1 3 3 7 7 12 7 4 4 5 5 4 2 7 3 3 3 8 13 14 14 11 7 6 7 15 22 25 50 49 51 51 53 51 51 49 48 46 43 40 41 41 39
3 6 3 6 4 2 4 5 4 4 3 6 2 4 4 6 2 5 8 13 14 15 12 9 5 8 10 13 19 39 41 46 47 47 50 50 49 48 47 44 40 38 37 37
2 5 3 4 2 4 5 4 4 3 3 1 3 2 6 2 1 3 10 14 15 16 15 14 12 8 11 9 15 31 34 35 38 41 43 46 49 47 48 45 40 37 34 32
2 2 3 5 5 6 3 3 4 4 3 3 4 3 4 5 2 1 7 12 15 14 13 13 13 13 8 7 13 20 25 28 31 28 29 36 46 44 45 47 44 41 36 33
4 3 5 2 2 4 5 4 4 3 3 2 1 6 4 2 3 5 7 10 13 13 14 16 18 15 14 10 17 18 18 24 24 14 19 30 38 37 41 47 47 42 38 34
2 4 2 4 2 5 1 5 4 4 6 2 3 6 4 3 2 4 10 16 11 11 9 12 14 14 12 2 9 13 14 13 18 18 7 19 33 32 35 40 47 43 41 37
1 2 3 8 6 6 4 1 3 3 3 4 3 6 3 3 5 7 12 16 13 12 11 11 13 13 11 8 6 5 8 18 24 20 17 9 19 27 36 34 41 43 40 40
6 3 5 5 6 2 3 4 2 5 3 4 6 7 5 6 6 8 12 13 16 15 19 16 14 11 9 9 4 10 11 12 11 17 4 4 11 26 32 33 31 35 36 40
4 2 5 6 7 4 5 8 4 3 7 5 7 5 5 5 8 11 11 13 16 18 14 12 12 13 10 9 9 12 13 18 5 6 9 8 6 15 20 28 29 23 28 36
3 3 2 5 6 7 6 9 6 4 3 4 4 6 3 11 10 11 12 12 11 10 9 9 5 9 13 11 11 11 13 10 11 17 15 11 11 4 16 18 21 20 16 21
3 5 3 10 5 5 7 6 5 4 4 4 4 6 5 7 7 13 13 10 11 8 8 9 5 2 6 7 4 9 11 9 10 10 16 15 9 17 18 29 30 15 30 32
5 3 4 4 2 3 6 1 3 3 6 5 6 4 8 9 15 14 12 11 13 8 5 5 5 4 1 4 5 2 2 7 11 12 14 11 2 4 8 14 18 25 33 44
7 4 1 2 3 4 2 3 2 2 5 2 4 4 10 13 9 14 7 4 11 8 6 2 5 4 3 3 6 6 6 5 6 11 12 7 3 1 3 5 15 18 16 14
6 5 3 1 2 3 2 2 3 3 5 7 8 8 10 8 2 4 7 14 13 9 6 3 6 6 8 9 7 11 17 19 19 16 15 10 7 6 4 4 9 13 15 16
3 3 2 1 2 6 4 2 11 1 6 5 10 14 10 4 7 16 16 13 9 7 7 6 5 8 11 10 12 18 20 23 21 19 18 18 15 13 13 10 7 3 10 11
3 3 2 2 1 5 7 2 4 7 8 12 16 18 20 22 23 17 15 14 12 6 7 11 10 13 14 12 12 15 17 17 15 14 15 17 19 20 16 14 13 14 6 3
3 5 3 7 5 5 5 15 11 14 15 17 18 19 17 21 23 18 10 4 3 3 10 12 10 10 10 7 8 9 11 9 10 12 13 13 13 14 16 17 18 17 17 11
3 3 3 2 5 7 14 15 20 16 16 19 20 19 15 18 21 15 13 9 9 9 7 10 10 8 7 6 6 8 8 8 7 8 9 8 8 11 11 12 15 16 16 15
7 4 4 5 8 8 10 8 10 11 13 16 12 11 12 14 14 13 10 7 10 14 11 8 7 5 5 6 6 8 7 6 5 5 6 5 5 6 7 8 8 11 13 14
5 5 4 6 7 7 8 4 8 13 11 7 6 7 9 9 7 4 4 6 4 6 7 6 4 3 3 3 4 7 8 8 9 7 4 5 5 6 7 6 5 6 7 5
Wind_Direction
11 94 224 228 201 209 197 191 235 271 282 230 268 278 288 308 316 333 242 211 198 208 229 240 227 221 226 227 221 220 220 221 217 213 212 212 214 214 214 212 216 220 217 224
21 250 245 240 210 209 205 230 265 278 263 146 271 290 288 285 329 296 254 218 215 220 232 230 223 223 225 230 231 224 225 225 222 220 217 219 218 220 221 222 221 221 222 228
163 247 317 242 268 252 208 181 239 218 289 203 4 328 352 330 72 42 22 50 45 254 245 248 236 235 230 225 232 235 228 228 227 225 222 219 222 226 225 225 222 223 224 226
212 271 240 282 234 149 311 210 212 226 73 298 68 277 340 330 336 45 50 44 32 32 357 291 262 246 239 236 235 233 235 229 230 228 225 223 223 223 225 227 226 226 230 229
252 293 337 350 283 175 248 242 277 66 96 37 7 88 261 1 349 24 31 54 37 2 7 345 277 248 240 237 234 233 235 232 231 230 230 229 229 233 233 230 233 233 233 235
249 239 134 237 309 84 284 23 41 52 82 27 248 122 294 306 265 305 15 29 71 29 63 5 268 252 232 235 239 236 235 235 231 231 230 231 234 233 231 232 234 236 237 237
322 6 359 19 20 350 43 46 352 8 6 233 155 50 232 260 272 253 299 3 22 32 33 54 42 314 290 280 245 236 235 232 231 229 229 231 234 240 243 242 240 238 239 238
267 333 30 335 119 245 34 114 156 256 218 255 128 195 247 196 198 307 328 334 342 8 356 10 25 334 306 282 259 231 231 227 227 227 228 234 232 240 244 248 248 245 242 240
128 302 337 21 18 97 321 4 201 160 2 52 288 347 319 248 344 358 327 342 332 325 345 1 6 330 303 281 234 225 221 219 220 223 225 230 240 237 243 247 250 247 244 243
170 354 0 318 41 28 103 271 5 10 1 317 307 273 239 268 240 337 321 339 333 324 334 332 341 337 302 237 194 192 207 201 201 211 228 234 237 238 242 246 245 246 242 239
125 113 279 84 86 280 4 27 19 115 126 170 286 279 250 264 264 305 293 330 322 315 326 332 332 333 331 218 190 178 168 179 186 179 227 230 239 239 241 245 246 245 243 237
35 137 195 250 279 291 165 109 112 100 300 240 175 266 274 266 312 259 293 315 307 305 321 346 356 349 342 20 222 236 220 216 208 213 232 231 233 238 242 246 248 245 242 239
222 6 11 350 357 2 91 101 136 109 77 231 181 268 215 334 332 296 289 305 311 287 287 317 326 342 348 352 218 351 310 263 259 255 244 261 230 240 245 246 248 249 244 238
94 99 149 192 221 236 297 305 313 132 150 237 226 273 267 263 271 281 283 281 289 284 288 304 312 306 346 347 21 26 23 339 263 225 256 143 213 224 232 237 238 247 248 240
93 198 193 227 241 231 246 287 284 235 234 209 287 217 264 276 280 288 292 296 290 284 279 293 310 304 325 0 17 32 30 30 81 186 45 45 25 245 229 234 223 233 241 248
20 260 215 262 258 266 270 265 257 247 263 267 282 279 236 303 294 297 302 314 322 300 284 280 273 298 296 336 347 357 24 33 54 73 72 90 80 205 277 266 263 276 302 311
193 158 145 274 252 328 307 225 190 231 206 191 243 240 324 306 295 282 300 304 306 296 294 271 227 300 346 328 16 34 19 27 37 63 88 98 134 243 246 257 258 283 252 282
199 177 161 242 102 240 249 357 111 237 259 234 271 304 300 303 303 289 288 298 299 296 285 294 145 151 29 349 10 33 3 10 41 49 56 83 194 259 250 235 230 225 234 242
191 139 217 180 194 299 296 235 163 180 284 210 262 270 275 316 313 299 283 311 312 300 280 146 107 91 74 53 58 76 78 64 61 62 77 94 83 138 135 174 214 223 234 245
71 74 121 123 185 240 242 103 61 83 283 215 225 267 274 301 317 263 284 301 277 276 257 200 108 90 79 71 78 87 89 87 78 72 73 79 74 75 127 205 222 232 237 232
359 358 135 195 224 285 239 153 120 305 244 236 252 269 276 217 251 298 306 298 292 266 238 169 114 93 86 87 97 91 86 82 80 82 82 78 75 76 71 57 44 249 234 235
209 162 212 112 215 295 225 59 170 223 278 280 281 280 283 292 297 304 301 291 273 276 188 132 113 105 100 100 97 90 84 85 85 79 73 68 65 61 63 57 52 46 53 188
277 188 198 181 225 260 244 231 253 275 272 288 289 298 294 290 294 299 283 271 230 161 172 136 115 115 107 101 78 73 76 84 87 80 74 71 72 66 58 52 47 50 54 58
281 171 219 36 266 260 268 271 269 269 275 289 295 292 291 284 288 273 250 248 213 206 182 156 132 125 108 77 71 69 59 58 72 70 72 71 71 75 64 56 56 52 59 60
255 171 214 256 281 270 263 273 264 265 278 285 291 305 310 303 289 253 235 219 216 207 193 155 151 143 116 98 87 73 57 47 33 29 41 61 81 75 66 64 74 73 62 61
220 226 177 232 264 229 263 255 272 284 289 291 297 330 344 336 320 227 211 148 169 165 169 162 171 142 112 53 42 25 13 10 20 24 50 45 72 51 60 57 55 72 80 63
Height
1482 1491 1498 1488 1488 1486 1489 1496 1499 1486 1472 1478 1473 1471 1457 1451 1450 1446 1443 1444 1448 1450 1445 1449 1462 1471 1470 1469 1470 1472 1478 1483 1488 1491 1495 1499 1502 1506 1510 1513 1517 1520 1524 1527
1488 1493 1478 1478 1480 1484 1488 1495 1494 1483 1470 1478 1472 1465 1455 1450 1449 1445 1442 1445 1447 1447 1451 1453 1459 1462 1465 1466 1465 1467 1471 1475 1480 1485 1490 1495 1499 1502 1506 1510 1513 1516 1519 1523
1490 1478 1470 1475 1476 1480 1484 1490 1486 1486 1471 1470 1469 1475 1465 1450 1453 1455 1452 1449 1448 1449 1451 1452 1455 1454 1453 1458 1458 1461 1463 1470 1475 1481 1487 1490 1495 1498 1501 1504 1508 1511 1514 1518
1482 1471 1471 1471 1473 1473 1483 1468 1469 1473 1481 1497 1474 1508 1476 1468 1460 1466 1462 1457 1455 1452 1450 1449 1448 1448 1448 1447 1455 1456 1462 1465 1471 1478 1482 1481 1482 1486 1491 1497 1502 1507 1512 1514
1479 1472 1472 1474 1469 1463 1473 1463 1467 1467 1482 1484 1485 1502 1484 1476 1472 1472 1474 1467 1460 1456 1453 1449 1444 1444 1446 1449 1450 1452 1455 1460 1465 1470 1476 1481 1478 1481 1486 1492 1496 1501 1506 1509
1471 1466 1467 1467 1464 1462 1461 1465 1475 1485 1492 1509 1487 1494 1494 1485 1476 1471 1469 1469 1464 1459 1450 1448 1445 1442 1440 1443 1444 1447 1449 1454 1460 1463 1468 1472 1478 1479 1480 1484 1490 1494 1499 1503
1476 1468 1465 1465 1468 1463 1468 1485 1514 1510 1518 1515 1490 1494 1488 1473 1471 1470 1467 1463 1458 1455 1451 1447 1443 1444 1441 1438 1434 1436 1440 1444 1450 1457 1466 1472 1479 1484 1486 1486 1488 1490 1494 1497
1494 1495 1471 1468 1472 1476 1478 1489 1514 1519 1523 1508 1487 1496 1482 1468 1469 1469 1466 1462 1458 1453 1453 1448 1441 1441 1438 1435 1432 1432 1431 1436 1441 1449 1457 1464 1472 1477 1480 1484 1488 1490 1491 1493
1493 1488 1471 1469 1467 1471 1482 1493 1484 1502 1504 1508 1500 1480 1471 1466 1469 1468 1465 1461 1456 1453 1450 1448 1446 1445 1441 1436 1433 1430 1428 1433 1435 1440 1449 1456 1461 1468 1473 1478 1483 1485 1489 1491
1483 1496 1479 1474 1471 1474 1478 1479 1497 1505 1513 1510 1505 1489 1489 1471 1469 1468 1464 1460 1454 1451 1447 1445 1443 1443 1441 1437 1433 1432 1432 1429 1432 1437 1442 1449 1452 1459 1464 1469 1471 1474 1479 1483
1478 1490 1489 1481 1485 1487 1491 1492 1495 1502 1511 1518 1522 1505 1473 1469 1466 1466 1461 1459 1457 1452 1447 1443 1440 1437 1436 1434 1435 1434 1434 1432 1431 1429 1435 1440 1443 1448 1454 1458 1464 1469 1473 1476
1478 1493 1501 1488 1479 1479 1482 1489 1498 1516 1514 1512 1514 1505 1468 1465 1465 1465 1462 1460 1456 1452 1447 1444 1441 1435 1431 1431 1433 1434 1431 1426 1427 1426 1427 1428 1433 1438 1442 1449 1456 1463 1467 1472
1478 1494 1510 1502 1491 1483 1484 1485 1487 1500 1509 1506 1513 1499 1466 1466 1465 1464 1462 1458 1454 1451 1449 1446 1440 1436 1431 1428 1428 1428 1425 1424 1425 1425 1424 1418 1424 1428 1436 1442 1449 1458 1461 1465
1475 1497 1500 1514 1499 1491 1490 1486 1482 1492 1510 1502 1499 1482 1471 1466 1464 1461 1459 1457 1454 1451 1448 1444 1439 1435 1432 1427 1426 1424 1420 1417 1415 1418 1419 1411 1412 1420 1432 1436 1445 1451 1455 1457
1480 1493 1492 1491 1488 1486 1484 1483 1479 1484 1486 1493 1477 1478 1467 1465 1462 1458 1458 1455 1451 1447 1447 1443 1439 1434 1431 1426 1423 1420 1418 1412 1413 1409 1411 1408 1406 1419 1430 1432 1438 1444 1449 1452
1483 1493 1489 1489 1480 1479 1480 1476 1475 1475 1473 1474 1472 1473 1462 1460 1458 1455 1454 1451 1449 1445 1442 1440 1438 1434 1431 1425 1422 1419 1418 1415 1415 1405 1405 1411 1405 1421 1432 1431 1435 1437 1441 1443
1487 1492 1497 1492 1482 1482 1488 1473 1470 1470 1470 1472 1478 1466 1462 1457 1456 1453 1451 1450 1448 1444 1441 1439 1437 1435 1431 1428 1426 1419 1415 1416 1410 1411 1401 1402 1408 1435 1422 1422 1433 1423 1434 1432
1483 1490 1494 1494 1486 1499 1474 1465 1465 1470 1466 1466 1466 1465 1463 1458 1454 1452 1450 1449 1447 1443 1439 1438 1437 1435 1433 1431 1425 1423 1422 1417 1411 1407 1401 1404 1423 1431 1430 1423 1428 1431 1432 1432
1475 1485 1492 1493 1496 1480 1472 1467 1469 1470 1470 1464 1464 1462 1459 1456 1453 1448 1448 1447 1446 1442 1440 1437 1435 1435 1434 1432 1429 1427 1422 1418 1415 1414 1415 1420 1425 1426 1424 1425 1431 1433 1431 1432
1476 1479 1487 1494 1489 1491 1475 1467 1466 1472 1481 1461 1462 1459 1457 1455 1456 1450 1446 1444 1443 1441 1439 1437 1434 1436 1432 1433 1432 1430 1428 1423 1422 1423 1422 1425 1426 1427 1427 1429 1432 1432 1431 1430
1488 1488 1489 1492 1490 1482 1466 1465 1463 1483 1478 1458 1458 1454 1453 1453 1450 1446 1442 1441 1440 1438 1438 1436 1435 1434 1432 1435 1436 1432 1431 1427 1428 1431 1430 1428 1428 1428 1427 1429 1428 1425 1425 1423
1486 1488 1491 1492 1490 1487 1461 1465 1471 1462 1456 1455 1454 1452 1450 1446 1444 1443 1440 1438 1438 1438 1437 1437 1437 1437 1436 1438 1437 1435 1434 1433 1435 1434 1432 1428 1425 1427 1428 1429 1427 1421 1418 1417
1488 1481 1484 1482 1477 1459 1458 1458 1456 1455 1454 1453 1451 1449 1448 1444 1439 1439 1439 1437 1436 1436 1428 1438 1439 1439 1439 1443 1438 1437 1437 1439 1438 1435 1433 1432 1430 1430 1428 1428 1425 1422 1418 1418
1473 1472 1475 1471 1459 1456 1455 1454 1453 1452 1451 1449 1448 1446 1444 1441 1438 1436 1436 1436 1437 1438 1437 1439 1440 1441 1440 1442 1440 1439 1439 1439 1438 1438 1436 1435 1434 1431 1432 1431 1428 1428 1427 1425
1474 1471 1467 1466 1456 1455 1453 1451 1451 1450 1449 1446 1445 1443 1442 1439 1435 1434 1433 1434 1434 1436 1436 1440 1441 1443 1443 1443 1442 1440 1442 1439 1437 1438 1437 1436 1436 1435 1436 1436 1435 1432 1430 1431
1466 1465 1468 1464 1452 1452 1450 1448 1448 1447 1446 1445 1442 1441 1439 1438 1436 1434 1434 1434 1435 1436 1438 1439 1441 1442 1442 1440 1439 1438 1439 1440 1437 1436 1436 1436 1434 1435 1435 1435 1438 1434 1433 1436